Wind_Speed
12 10 10 12 11 10 10 9 9 9 10 10 10 9 9 8 6 5 6 5 4 9 13 11 9 10 10 11 11 11 9 9 9 7 7 7 6 7 7 5 3 2 2 4 5 6 6 8 10 12 13 15 16 16 15 11 9 8 8 7 7 7 8 8 6 6 7 7 7 6 6 7 7 7
11 9 10 12 12 11 11 10 10 11 11 11 11 10 9 8 7 5 6 6 8 12 14 12 12 12 11 11 11 10 9 10 9 6 6 7 7 8 7 5 3 1 1 3 4 5 5 6 8 10 11 13 14 15 15 13 10 7 5 5 6 6 7 8 6 6 8 8 7 6 6 7 8 8
12 11 11 12 12 12 12 12 12 13 12 12 12 11 9 8 7 6 6 5 8 12 11 10 13 14 12 12 11 10 9 10 9 6 6 6 7 8 6 5 3 1 2 3 3 4 4 4 6 8 9 10 12 13 15 15 13 8 5 3 5 6 6 8 7 6 8 8 6 6 7 8 9 9
12 13 12 12 13 12 12 13 13 13 13 12 12 11 10 9 8 8 7 4 7 12 11 10 13 14 13 12 11 10 9 9 9 7 6 6 7 8 6 5 3 2 3 4 4 3 3 3 4 6 7 9 11 12 13 15 15 11 5 2 6 8 7 8 8 7 9 8 7 8 9 9 9 7
12 13 13 13 13 13 13 13 13 13 13 13 12 11 11 11 10 10 9 6 7 10 10 11 13 14 14 13 12 11 10 10 10 8 7 7 7 7 6 5 4 3 4 5 5 3 2 2 3 4 5 7 9 10 12 13 16 13 6 2 8 10 10 10 9 8 8 8 8 10 10 9 7 6
13 12 12 13 13 13 13 13 13 13 13 13 12 12 12 12 11 11 10 9 8 10 11 12 14 14 13 12 12 12 11 10 10 9 8 7 6 6 6 5 4 4 4 6 4 2 1 1 3 4 4 6 8 10 12 13 16 15 7 2 8 12 13 12 11 9 8 8 10 11 10 8 6 5
13 12 12 13 13 13 14 13 14 15 14 13 13 13 12 12 12 12 11 10 9 11 13 14 16 16 14 13 12 12 11 10 10 10 9 7 6 6 5 5 4 4 4 4 2 1 2 2 3 4 4 6 8 10 12 14 18 15 6 3 9 14 16 14 12 10 8 10 11 10 9 6 5 6
13 13 13 13 13 14 14 13 14 15 14 13 13 12 12 12 12 12 12 11 10 10 14 15 15 15 13 12 13 12 11 11 10 9 9 8 7 7 6 5 4 4 3 2 1 2 2 3 4 5 4 5 8 10 12 16 18 12 4 3 9 16 18 16 13 10 9 10 10 9 7 5 5 8
14 13 13 13 14 14 13 13 13 13 13 13 12 12 12 12 12 12 12 12 11 11 13 14 13 14 13 11 13 13 12 11 10 9 9 8 8 7 7 6 5 4 3 3 3 3 3 4 5 5 4 5 8 10 13 18 16 8 4 3 8 16 21 18 14 11 9 10 9 7 7 5 5 9
14 13 13 12 13 13 13 13 13 12 12 13 12 13 13 12 12 12 12 12 12 12 13 13 14 17 17 13 13 14 13 12 11 10 9 9 8 8 7 7 6 5 4 4 4 4 3 5 5 4 2 5 8 9 14 17 12 6 5 4 8 18 23 19 14 11 10 10 8 7 7 5 6 9
13 13 13 12 12 13 13 13 13 13 13 13 13 13 13 12 12 12 12 13 13 12 13 13 15 18 18 15 14 15 14 12 11 11 11 10 9 9 8 7 7 7 5 5 5 5 4 4 4 2 1 5 7 9 13 16 11 5 5 6 10 20 23 18 13 11 10 10 8 8 7 6 7 9
12 12 12 12 12 13 14 13 13 13 13 14 15 14 13 13 13 13 13 13 14 13 13 13 14 16 16 16 15 14 14 13 12 11 11 10 9 9 8 7 7 7 6 5 5 5 5 3 2 1 2 5 7 8 13 16 10 5 7 8 13 20 21 17 12 10 9 10 10 9 9 9 9 10
11 12 12 12 12 13 14 15 15 14 14 15 14 13 13 13 13 14 14 14 15 15 14 14 13 15 16 17 16 15 16 15 13 12 11 9 9 9 8 8 7 6 6 6 5 4 4 2 1 1 1 4 5 7 11 15 11 6 9 10 14 19 19 16 11 8 9 9 9 10 9 9 10 10
11 12 12 12 14 15 16 16 17 17 17 17 14 12 13 14 14 15 15 15 15 15 15 16 14 16 18 18 16 16 16 15 13 13 12 10 9 10 8 7 8 7 6 6 5 4 4 3 2 2 0 1 4 5 9 14 11 8 11 12 14 18 18 14 9 8 8 9 9 9 9 9 9 9
11 12 13 13 14 17 17 17 19 19 19 19 18 16 15 16 17 16 14 13 15 16 16 16 15 15 16 16 16 16 16 15 14 13 13 11 10 11 9 7 8 9 7 6 6 5 5 5 3 3 2 1 2 4 8 12 11 8 12 13 14 17 16 11 7 7 8 9 9 9 8 8 8 8
11 12 13 13 14 16 18 18 18 19 20 21 20 19 18 18 19 18 14 12 14 15 14 14 15 15 15 15 16 16 15 16 15 14 13 13 12 11 10 7 7 10 10 8 6 6 6 5 4 4 3 1 1 3 6 10 10 9 13 14 15 17 14 9 6 7 8 9 9 8 7 8 8 8
13 12 12 13 13 14 16 17 17 17 19 20 20 20 20 20 20 20 18 16 14 13 13 14 14 14 15 15 16 16 16 16 16 15 14 14 13 12 11 9 6 11 12 9 7 6 6 6 5 5 4 2 2 2 4 7 9 10 13 16 17 16 11 8 7 8 9 9 8 8 8 8 8 7
15 14 13 13 14 14 14 16 16 16 17 18 20 20 20 19 19 20 21 21 19 17 16 16 15 13 13 14 13 14 16 16 15 15 14 14 14 13 11 8 6 11 13 10 7 7 7 8 6 6 6 4 3 2 2 6 7 9 14 16 16 13 9 7 8 9 9 9 8 8 8 8 8 7
16 16 15 14 14 14 14 15 16 16 16 16 17 19 18 17 17 18 18 20 22 21 19 18 17 14 12 12 11 11 14 15 14 14 14 14 14 13 11 8 8 11 13 11 9 7 8 9 7 6 7 5 4 3 2 5 7 9 13 16 15 12 8 7 8 9 9 9 8 8 8 8 7 7
16 17 17 16 16 15 15 16 18 18 16 15 15 16 16 15 16 16 16 17 19 19 18 18 18 16 14 15 14 13 15 15 13 12 12 13 14 13 12 11 11 12 13 14 11 8 7 10 7 7 9 6 5 5 4 5 7 8 12 15 15 12 9 8 9 9 9 8 8 8 7 7 7 6
16 17 18 17 17 17 17 17 18 18 18 16 15 15 14 14 15 15 15 17 19 19 20 20 19 19 18 18 17 17 16 15 14 14 13 15 15 14 13 13 12 13 14 15 14 10 7 9 8 8 8 7 6 6 6 6 7 9 12 14 16 14 10 8 9 9 9 9 8 7 7 7 6 6
16 17 19 20 18 17 18 19 20 19 18 17 16 16 15 15 16 15 14 16 18 19 21 22 20 18 18 17 17 18 18 16 17 18 16 15 16 16 14 13 12 13 14 16 16 12 9 10 10 9 9 8 7 8 8 8 8 10 12 14 15 16 13 9 8 9 9 9 8 7 6 6 6 6
16 16 18 21 21 19 18 19 21 21 20 19 18 17 17 17 18 17 16 16 16 16 18 22 23 22 21 19 18 19 18 18 21 22 19 16 17 17 15 14 12 10 11 17 19 13 10 12 12 12 11 8 8 9 9 9 9 9 11 13 15 16 16 13 10 9 9 8 8 7 6 6 7 5
17 17 17 19 22 22 21 20 20 21 21 21 19 17 18 20 18 17 16 16 17 16 15 19 24 23 22 21 21 21 21 22 24 25 21 18 18 18 16 15 14 11 11 18 22 16 11 12 14 14 12 6 7 11 11 10 11 10 9 10 12 15 17 16 13 11 10 9 9 9 8 8 9 7
16 16 17 17 19 21 22 22 22 22 23 23 21 19 22 23 20 17 16 17 18 17 15 17 21 21 20 21 22 22 23 25 27 28 25 21 19 19 18 16 16 15 12 17 22 17 12 12 13 14 13 7 7 13 11 10 12 12 11 11 10 12 16 16 14 13 13 12 11 11 11 10 10 10
18 16 15 16 17 18 20 21 22 24 25 26 25 23 23 24 23 20 18 18 18 17 17 18 19 19 19 20 21 21 22 24 28 29 28 24 19 19 19 16 16 16 12 14 20 18 13 12 13 13 12 9 8 11 11 10 11 12 13 12 11 11 13 14 12 12 13 13 13 13 13 13 12 13
20 18 15 13 13 14 17 19 21 22 24 27 29 27 25 25 24 21 19 18 15 15 18 20 19 18 19 20 21 22 22 23 25 27 26 24 20 18 18 17 16 15 12 14 19 18 14 13 13 13 13 11 10 9 10 11 13 13 13 13 12 12 13 13 13 13 12 12 13 14 14 14 15 16
17 18 17 15 13 12 14 17 20 21 22 24 28 28 27 27 25 22 21 22 19 17 19 20 19 19 20 21 21 23 24 24 24 23 22 21 21 20 18 17 16 14 12 14 18 18 16 14 13 14 14 12 11 11 10 11 15 15 13 12 13 14 14 14 14 14 12 12 13 13 13 14 15 15
14 16 17 18 17 14 14 15 18 21 23 23 23 25 26 27 27 25 24 23 22 21 19 19 20 20 20 21 21 20 21 21 21 21 20 19 19 19 18 16 15 14 13 14 17 18 17 15 14 14 15 14 13 12 10 9 13 15 13 12 13 14 16 16 15 14 14 14 14 13 12 12 12 12
11 13 16 18 19 19 19 17 17 19 22 22 21 22 24 27 29 29 24 21 21 22 20 19 21 22 20 19 19 18 18 20 21 22 21 19 18 19 18 16 15 15 15 15 16 17 17 16 15 14 15 15 14 13 12 10 11 14 15 14 12 12 15 16 15 15 15 15 15 14 13 13 14 13
6 8 10 13 16 19 21 21 21 21 20 21 22 23 25 27 30 30 27 24 25 25 23 22 23 22 19 18 19 19 20 22 22 22 23 22 20 20 19 18 18 17 16 17 17 18 18 17 16 16 16 15 15 14 13 13 12 13 16 16 13 11 14 17 16 15 16 15 14 14 13 14 15 16
8 8 9 10 11 14 17 19 22 23 22 23 24 23 22 25 29 30 28 27 27 27 25 23 24 23 20 19 20 21 22 23 23 22 22 22 22 21 20 20 21 20 18 18 18 18 18 17 17 17 16 15 15 14 13 14 15 13 14 17 15 13 13 16 16 14 15 15 14 14 14 15 16 17
13 11 9 9 9 10 11 13 16 18 20 23 25 24 21 21 25 27 28 28 27 26 24 23 24 24 21 20 20 21 22 23 24 23 22 22 23 22 21 21 22 22 21 20 20 20 19 18 17 16 16 15 14 14 15 15 16 16 15 15 16 15 15 15 15 15 16 15 14 13 13 15 16 17
11 9 9 10 10 10 10 11 13 14 16 19 22 23 23 22 22 25 28 27 25 25 26 26 25 24 22 21 21 22 22 22 22 23 23 23 23 23 22 22 22 24 23 21 21 21 21 19 17 16 15 14 14 15 17 17 16 16 17 17 16 16 17 17 16 15 17 16 14 12 13 14 15 16
8 9 10 11 11 11 12 13 13 14 15 16 17 18 20 22 23 26 29 29 25 25 27 27 26 25 25 24 23 23 23 22 22 23 23 23 24 24 24 23 23 23 23 22 21 20 21 21 19 16 15 15 15 16 20 23 20 17 17 18 18 17 17 18 17 15 16 16 15 13 13 13 13 15
10 11 11 12 12 13 14 14 15 16 16 17 18 18 18 20 22 26 31 32 28 25 26 27 27 26 25 25 24 24 23 23 23 23 24 24 24 24 24 24 23 23 23 23 21 20 21 21 21 19 16 14 12 12 18 25 27 24 19 18 17 17 16 17 16 15 16 17 17 15 15 14 13 13
11 13 13 13 14 14 15 16 17 18 19 19 21 22 22 21 21 24 29 31 28 26 27 28 27 27 27 26 25 24 24 25 24 24 25 25 24 24 24 24 24 23 23 23 22 21 20 20 22 21 17 12 9 9 11 15 22 26 24 20 17 16 16 15 14 15 17 18 18 16 16 16 15 13
14 14 14 14 15 15 16 17 18 19 20 21 22 23 25 25 24 22 23 24 25 27 29 28 28 29 29 27 25 24 24 24 24 24 25 25 25 25 25 25 24 24 23 23 23 22 21 20 21 22 19 13 9 10 10 9 13 20 25 23 18 16 16 16 15 16 17 17 17 16 16 16 15 13
16 16 15 15 16 16 17 18 19 19 21 22 22 23 25 26 26 25 24 23 24 26 29 29 29 29 29 28 28 27 25 24 24 24 25 26 26 25 25 25 24 24 23 23 22 22 22 22 22 22 21 17 13 12 10 7 9 12 16 21 21 17 15 15 16 16 16 16 15 15 15 14 14 13
16 16 17 17 17 18 18 19 19 21 21 22 23 24 25 25 26 26 25 25 25 26 29 30 29 29 30 30 30 29 26 24 25 25 25 25 26 26 26 25 24 23 22 22 22 21 23 23 22 21 20 17 12 9 5 3 5 7 8 13 19 19 15 13 14 15 15 15 14 14 14 13 13 13
16 16 17 17 18 19 20 20 20 21 22 22 23 23 24 24 26 26 27 28 27 26 28 29 29 30 31 30 29 28 26 25 25 25 25 24 25 26 27 25 24 24 23 22 22 23 22 22 22 21 19 14 9 7 6 5 6 8 9 10 13 17 18 16 14 13 13 12 11 13 14 13 12 12
19 19 19 18 19 19 20 21 21 22 22 23 23 23 24 25 26 27 28 29 28 25 26 28 29 29 31 31 30 28 26 26 26 26 26 25 24 26 27 26 25 25 24 23 23 22 20 21 22 21 19 16 12 9 9 11 11 10 10 10 10 13 17 18 17 17 16 14 11 12 12 11 11 12
19 20 21 20 20 20 20 21 21 22 22 23 23 24 25 25 26 27 29 29 27 25 26 27 28 30 32 33 32 30 28 27 27 26 27 27 27 26 27 28 27 26 25 24 23 20 18 20 21 20 18 17 15 12 11 12 12 10 10 11 10 10 12 15 16 17 18 18 17 16 15 12 11 11
18 19 20 21 21 21 21 21 21 22 23 23 23 24 24 25 26 28 31 29 26 24 26 27 29 33 34 33 32 30 28 29 29 29 29 30 29 28 28 28 27 26 24 22 20 18 17 19 21 19 17 17 17 15 14 13 13 12 11 10 10 9 8 9 11 12 14 17 19 20 20 19 19 19
17 18 19 20 20 21 21 21 21 21 22 23 23 23 24 25 26 28 31 30 27 26 28 29 31 32 32 32 31 29 27 29 31 30 28 28 29 29 27 26 26 26 24 21 20 20 19 19 20 19 17 17 17 18 15 12 11 11 10 9 9 9 8 8 9 10 12 14 15 15 16 18 20 21
Wind_Direction
212 208 208 213 212 212 218 213 207 208 205 204 205 202 207 207 189 187 187 165 146 173 180 176 169 163 150 141 140 138 140 143 142 144 147 152 164 167 162 150 129 107 44 33 34 35 36 39 42 46 47 45 44 45 45 49 50 55 74 92 110 131 141 139 126 117 116 108 107 107 100 105 111 104
205 202 202 204 204 207 210 206 202 204 203 201 203 207 208 210 206 193 184 169 153 175 188 177 165 165 153 148 146 138 145 150 145 145 150 153 163 164 162 160 153 152 354 5 13 23 28 33 36 40 44 40 40 42 40 42 42 41 60 94 120 135 141 142 132 120 117 111 108 104 100 110 111 102
203 200 200 199 202 207 206 202 202 202 202 202 203 204 203 207 212 205 200 180 154 174 187 166 160 165 157 153 150 138 146 156 148 145 154 161 162 159 161 168 173 219 299 334 350 4 15 23 31 36 41 38 37 38 36 33 31 32 45 96 139 150 153 156 146 126 122 119 113 108 106 114 113 106
204 203 201 202 206 205 201 203 206 203 203 204 201 198 195 198 205 206 211 200 159 173 183 164 161 167 160 156 154 144 146 155 152 149 159 164 160 160 171 179 185 230 279 316 338 344 353 11 20 25 33 32 30 31 30 24 20 21 30 102 151 158 161 164 155 133 129 127 119 113 113 119 120 114
206 206 203 204 208 204 202 206 207 204 205 205 202 197 193 196 200 200 207 204 166 164 174 169 164 165 164 160 158 154 149 154 156 152 158 165 163 167 173 178 195 232 273 302 325 330 324 347 357 3 16 19 20 20 20 16 8 4 5 133 162 166 166 166 159 138 129 129 122 120 123 124 118 113
206 207 203 204 207 204 206 210 209 208 207 207 205 200 196 198 198 196 203 207 186 162 164 173 170 169 173 168 165 164 156 154 158 153 156 168 169 168 164 167 194 224 267 294 312 309 258 306 328 331 348 2 8 9 10 7 356 350 344 188 172 172 170 166 158 141 128 128 126 129 133 125 104 106
207 207 204 204 204 203 207 210 212 213 211 210 210 205 202 199 196 197 202 209 202 172 166 181 180 176 182 178 171 170 161 157 163 157 157 167 168 168 159 154 180 216 254 286 305 170 210 275 308 316 334 352 359 0 4 359 349 344 339 194 176 172 171 165 157 145 131 131 135 137 136 120 100 112
210 211 209 205 201 201 206 208 212 215 212 211 213 210 207 202 197 199 200 206 209 184 175 185 181 175 182 183 176 171 162 163 168 159 157 164 164 164 156 148 173 208 224 234 166 166 217 276 296 307 324 347 354 357 360 354 348 351 10 165 171 170 170 165 156 147 137 137 140 139 134 119 108 122
212 212 211 209 203 200 204 208 210 213 211 211 214 213 209 205 199 197 198 202 207 198 188 182 171 171 179 183 182 177 168 168 168 158 161 167 163 161 158 158 176 197 195 192 188 197 239 280 294 302 315 345 353 357 358 354 354 12 60 124 162 168 170 164 154 146 139 136 135 136 139 124 111 129
214 212 211 211 205 200 205 210 211 212 213 213 215 214 211 207 201 198 200 202 201 204 202 180 163 177 186 185 187 183 175 174 170 163 168 172 166 165 165 164 167 171 183 202 207 216 256 292 298 297 323 350 355 357 358 359 5 39 71 87 147 165 167 160 147 141 134 129 130 134 135 118 114 136
215 214 212 209 203 200 204 209 211 212 213 215 216 215 213 210 206 201 201 203 201 203 207 190 169 177 188 190 191 187 180 181 180 173 174 174 174 174 171 173 171 167 180 208 218 227 259 294 291 264 354 354 356 359 1 6 17 55 74 87 141 161 163 153 138 135 131 125 127 128 124 118 125 138
213 213 211 207 202 201 203 205 210 211 208 212 216 215 213 212 211 206 200 202 204 201 207 203 176 170 188 197 192 183 180 185 189 187 184 180 180 180 178 181 180 171 178 194 210 232 260 282 265 180 360 348 357 5 8 13 25 66 81 98 143 160 160 149 134 132 130 124 124 126 124 126 133 137
209 210 210 208 204 203 204 204 208 210 208 211 214 213 214 215 214 213 206 203 207 205 208 208 179 169 194 203 189 182 188 192 191 190 193 192 186 186 188 185 185 185 186 188 193 212 231 244 215 168 321 343 9 15 11 17 32 78 93 106 147 161 157 149 138 128 128 127 127 130 130 133 137 139
213 214 213 212 210 210 210 208 207 208 210 211 211 210 214 216 218 219 213 207 210 208 210 213 195 185 199 201 190 189 194 196 192 189 195 198 188 190 195 186 185 194 197 195 195 191 192 204 197 161 159 15 35 25 15 21 38 89 111 116 148 162 157 150 139 123 127 133 132 133 133 133 136 135
220 221 221 219 216 213 213 213 211 209 210 210 212 212 212 212 216 220 216 213 218 216 214 216 209 202 202 198 195 196 194 195 196 191 194 198 190 192 202 197 186 192 199 201 199 189 188 205 195 142 128 82 50 32 24 28 41 94 125 131 150 162 158 149 136 126 135 137 131 129 130 131 136 138
219 223 223 222 220 216 214 216 216 215 214 212 213 214 215 214 216 216 213 216 225 228 226 220 213 210 207 201 199 199 193 193 196 194 195 199 195 193 205 216 189 178 188 201 202 192 190 204 192 148 149 157 65 41 36 37 47 92 128 140 151 158 155 143 135 136 139 134 128 130 134 135 138 138
214 219 222 221 221 221 219 217 216 217 219 218 215 214 217 220 222 221 218 218 224 233 240 237 224 214 210 207 204 199 196 192 192 196 197 199 201 196 204 222 187 164 179 197 206 198 187 198 195 156 158 176 110 76 54 50 58 94 127 142 149 153 148 137 138 141 137 137 138 139 137 134 134 135
209 211 216 221 223 222 219 216 215 215 216 217 215 216 218 222 226 228 226 226 225 226 233 239 237 228 217 212 206 197 195 194 193 198 198 197 203 200 205 217 178 165 182 194 208 208 188 200 206 156 154 182 149 126 84 73 77 103 129 145 151 149 140 132 138 142 140 141 141 134 128 128 129 129
209 207 209 216 221 223 221 219 218 216 213 213 212 214 217 220 225 230 230 231 231 228 228 233 236 235 225 216 206 188 190 197 199 203 203 201 203 201 202 202 176 177 189 191 212 224 186 193 209 155 151 175 155 153 141 103 103 117 135 150 157 151 140 137 141 144 142 138 134 129 127 128 127 125
213 210 209 210 215 220 222 224 223 217 214 216 216 215 217 219 223 228 229 232 234 230 226 226 229 232 225 218 210 193 191 200 199 202 208 206 203 200 200 200 193 195 195 191 212 231 184 184 200 155 152 171 157 163 180 138 129 137 144 155 164 164 157 149 146 144 141 139 138 135 131 128 127 124
218 216 213 212 213 215 218 222 225 221 216 219 224 225 223 222 226 228 226 230 235 233 224 219 225 231 229 226 222 212 212 212 201 201 208 204 200 200 202 204 200 199 197 191 203 226 204 188 191 160 157 175 160 157 181 173 154 154 158 164 170 175 174 162 153 150 149 150 148 143 140 137 125 110
220 220 219 217 215 216 218 219 222 223 219 218 225 230 229 227 228 227 221 221 231 235 228 219 218 223 223 225 224 219 219 217 206 206 210 205 203 205 209 210 202 202 205 193 194 213 209 190 187 169 161 174 169 164 182 189 174 168 172 176 179 183 184 177 166 162 160 159 157 153 156 147 120 105
221 222 223 223 222 221 220 219 222 224 220 217 221 228 233 235 232 228 220 213 217 225 226 219 216 217 218 221 221 217 215 212 209 211 214 213 210 210 214 214 207 212 212 193 191 203 200 188 188 178 173 177 171 172 183 184 176 176 181 186 188 190 190 189 186 180 174 173 172 173 177 161 141 144
221 221 222 227 229 227 223 220 223 225 224 221 219 219 228 234 235 232 227 218 214 216 217 215 215 216 217 220 221 219 215 211 208 209 214 218 216 215 217 215 214 225 215 191 191 200 199 194 191 191 206 218 162 164 178 175 171 179 183 188 196 198 197 197 199 197 194 194 192 192 191 174 164 183
229 225 222 227 233 233 229 225 225 226 228 228 222 220 228 233 233 234 233 227 221 218 213 211 212 210 210 213 216 217 215 212 210 209 212 216 218 219 221 218 219 228 215 185 187 196 199 201 195 197 220 236 151 153 168 171 175 183 183 188 203 207 202 200 202 208 211 211 213 211 205 192 182 188
241 237 230 228 234 239 239 236 233 232 233 233 229 228 233 236 235 232 233 233 228 219 213 212 212 210 208 209 211 214 214 213 213 213 212 213 216 219 222 223 224 227 209 176 180 191 198 204 201 194 205 214 178 160 165 171 180 185 186 192 201 204 202 199 201 210 216 216 221 224 219 211 202 195
250 252 253 250 249 251 251 247 244 242 240 239 237 234 233 236 235 232 233 237 235 228 224 222 216 212 211 209 208 210 211 209 209 210 211 212 214 217 220 224 228 229 213 183 181 192 200 205 204 198 199 207 201 187 185 182 176 178 188 196 198 199 199 200 205 212 212 215 225 232 230 226 221 210
259 260 261 262 262 264 262 255 251 251 249 247 246 243 238 236 234 231 230 231 231 234 238 234 224 217 215 214 212 211 210 209 206 205 207 208 211 215 218 220 222 221 207 185 184 193 201 204 203 200 203 209 207 208 212 188 166 170 186 191 192 199 200 200 208 214 211 211 221 230 229 229 231 225
268 263 260 261 262 265 270 265 255 251 251 251 252 250 246 239 233 229 228 226 225 231 238 237 232 227 222 218 218 215 211 207 201 198 202 205 208 212 214 213 211 207 193 183 186 195 202 205 202 200 205 212 214 221 227 196 167 169 181 186 192 199 202 203 206 210 212 212 215 223 226 223 227 228
278 273 269 267 265 267 271 272 265 256 253 253 255 254 248 241 234 229 225 220 221 228 234 236 237 236 230 223 219 215 209 203 196 192 195 198 200 203 203 201 202 202 195 192 196 201 203 204 202 199 204 211 217 226 231 217 191 176 175 188 199 193 194 205 209 205 209 212 212 220 227 226 226 226
290 290 288 281 272 267 265 265 266 265 261 258 257 252 246 241 236 229 223 220 222 225 228 232 236 237 233 225 219 212 205 201 197 192 191 194 196 198 201 204 206 205 200 199 203 206 206 204 202 201 204 210 216 223 228 230 224 198 179 189 213 211 194 197 203 204 206 208 211 217 222 224 228 228
286 291 297 295 285 274 265 260 260 260 257 254 253 250 244 241 237 231 225 222 225 227 228 230 233 233 230 224 217 210 203 200 202 200 197 199 203 201 202 209 213 209 202 200 202 206 206 204 202 203 206 212 217 220 223 227 234 227 198 189 208 224 205 191 197 204 202 201 209 215 216 219 225 227
284 284 283 282 281 278 269 257 250 248 246 245 247 245 241 238 234 229 223 220 223 225 226 228 230 228 226 221 214 209 207 207 207 205 202 205 208 205 205 211 213 212 208 202 198 201 203 201 202 205 209 217 220 221 224 226 229 234 227 208 207 218 216 210 213 206 195 197 208 213 215 220 224 225
280 274 267 264 263 263 260 251 242 235 231 233 238 240 238 233 229 225 221 219 220 221 222 224 225 223 221 218 211 210 213 211 205 201 202 206 209 208 210 214 213 214 215 208 198 198 200 199 200 204 209 218 226 226 227 230 231 234 236 232 227 225 224 226 225 206 192 199 210 214 219 225 226 224
264 255 255 255 252 250 251 249 243 236 229 225 228 233 232 230 226 223 220 220 220 219 218 221 223 223 222 220 215 213 215 211 203 198 199 204 207 209 212 215 214 213 216 213 204 198 197 194 195 200 206 216 226 230 228 229 232 236 238 237 236 234 231 231 227 210 201 209 217 223 232 238 236 227
250 245 247 249 248 245 245 245 243 240 236 230 227 227 227 226 223 222 222 222 220 218 217 217 220 221 221 220 219 217 215 211 205 198 197 201 204 207 211 215 215 214 214 214 207 197 192 193 195 198 203 209 217 230 232 229 229 232 237 240 238 234 231 234 228 212 209 219 225 229 237 246 250 238
246 244 242 243 244 242 240 242 243 242 242 240 236 232 230 228 226 225 225 223 220 218 218 216 215 215 216 216 218 217 215 211 207 203 202 202 202 205 210 213 214 214 214 213 208 198 194 196 198 200 207 213 215 227 231 222 219 223 228 234 237 232 227 230 226 214 214 226 231 232 238 247 252 247
244 245 243 243 244 240 238 240 241 242 243 243 242 239 237 235 233 229 225 221 217 216 217 216 213 214 214 213 213 214 213 211 207 205 206 205 202 204 210 213 213 212 212 212 210 202 197 199 201 203 209 214 220 233 230 202 197 211 218 222 228 228 222 220 222 220 222 229 235 238 242 247 250 250
237 240 243 245 245 243 241 238 237 239 240 241 241 241 239 237 237 234 226 219 214 213 215 215 214 213 213 211 213 214 213 209 207 206 207 207 205 204 208 211 210 209 209 211 209 203 201 205 207 207 212 218 226 239 244 221 194 202 212 216 220 224 223 219 220 226 230 232 236 242 244 245 248 251
235 236 239 242 245 246 244 240 237 238 240 240 240 242 241 238 237 236 231 224 216 212 212 213 213 213 213 213 213 215 212 208 208 209 209 208 207 206 206 207 206 204 206 210 210 204 204 209 210 208 213 221 223 221 221 180 157 166 183 203 212 218 223 225 226 231 235 235 235 239 241 243 247 248
245 242 240 240 243 246 246 244 240 238 239 240 241 243 243 238 234 235 236 231 223 216 214 213 211 212 215 214 211 211 210 208 208 210 211 210 207 204 203 203 204 206 209 212 212 207 204 208 211 210 210 208 200 196 202 204 198 194 191 197 211 218 223 228 231 232 236 242 242 239 240 246 252 251
250 250 249 245 244 246 246 245 244 241 240 240 240 240 241 238 234 236 239 235 227 221 219 217 213 212 214 215 212 209 208 207 207 208 211 212 210 206 203 203 207 211 212 213 213 208 202 205 208 206 203 201 196 199 214 224 227 217 194 183 199 218 223 226 230 231 234 240 241 236 236 243 250 250
247 248 250 249 247 247 246 245 245 243 241 241 240 239 241 239 236 236 237 233 227 222 221 220 217 215 214 215 214 211 208 207 207 208 211 213 213 210 205 203 207 211 212 213 210 200 192 195 196 190 190 198 199 198 207 217 217 203 179 173 182 198 213 224 230 233 235 236 234 232 232 235 242 250
248 247 248 248 248 248 246 245 245 244 243 244 243 241 241 239 235 234 235 232 226 223 221 220 219 217 215 214 213 212 208 206 207 209 211 212 213 211 205 200 201 205 207 204 196 183 176 179 180 179 185 194 196 198 206 212 210 201 188 176 171 173 190 216 226 231 237 239 238 236 236 236 239 247
249 248 249 250 249 249 249 247 246 246 246 246 245 243 242 240 235 233 233 233 229 226 224 222 219 217 214 211 210 209 207 206 209 210 209 209 211 211 204 195 193 198 201 194 176 165 165 170 172 178 187 193 195 200 202 202 208 207 189 166 168 187 207 217 217 222 233 238 238 239 239 238 240 245
Height
789 791 791 791 790 793 795 794 794 794 795 796 796 797 796 795 796 797 797 798 801 803 804 804 806 807 808 810 811 813 814 815 816 818 818 819 819 820 821 822 822 822 822 821 821 821 820 819 818 817 816 815 813 812 811 810 810 809 809 809 809 810 810 811 811 811 811 811 811 812 812 813 813 814
787 789 790 790 790 792 794 793 793 794 794 795 796 795 795 795 794 794 795 797 800 802 803 803 804 807 808 810 811 813 814 815 816 817 818 818 819 820 821 822 822 822 822 821 821 821 820 820 819 818 817 815 814 813 812 811 810 810 809 810 810 811 811 811 811 811 811 812 812 812 813 813 814 815
785 787 788 789 790 791 792 792 792 793 794 794 794 794 794 795 794 793 793 795 799 801 801 801 804 806 808 809 810 812 813 814 816 817 818 818 818 819 820 821 821 821 821 821 821 821 821 820 819 818 817 816 815 814 813 812 811 810 810 810 810 811 811 812 812 812 812 812 813 813 814 814 815 816
783 784 786 787 789 790 790 791 791 792 793 793 792 793 794 794 794 794 793 792 797 800 800 801 803 805 807 808 810 811 813 814 815 816 817 817 818 819 820 821 821 821 821 821 821 821 820 820 819 818 818 817 816 815 813 812 811 810 810 809 810 811 811 812 812 812 812 813 813 814 814 815 816 816
781 783 784 786 787 788 789 790 790 791 791 791 791 792 793 793 793 794 794 792 794 799 800 801 802 804 806 807 809 810 812 813 814 816 816 817 818 819 820 820 821 821 821 821 821 820 820 820 819 818 818 817 816 815 814 812 811 810 809 809 809 810 811 812 812 813 813 814 814 815 815 816 816 816
780 782 783 785 786 787 788 789 789 790 790 790 791 791 791 792 792 793 793 792 792 796 800 801 802 804 805 806 808 810 811 812 814 815 816 817 818 819 819 820 820 820 821 820 820 820 820 819 819 818 818 817 816 815 814 812 811 809 808 808 808 809 810 812 813 813 814 814 815 815 816 816 816 816
779 781 782 784 785 786 787 787 788 789 789 789 790 790 790 791 791 792 793 792 790 793 798 800 801 803 805 806 808 809 810 812 813 814 815 816 817 818 819 820 820 820 821 820 820 820 819 819 819 819 818 817 816 815 814 812 810 808 807 807 808 809 810 812 813 814 815 815 816 816 816 816 816 816
777 779 780 782 783 784 785 786 786 787 788 788 788 789 790 790 791 791 792 793 791 792 796 798 798 801 804 805 807 808 809 811 812 813 814 816 817 818 818 819 819 820 820 820 819 820 819 819 819 819 818 817 816 815 814 812 809 807 806 806 807 809 810 812 814 815 815 816 816 816 817 817 816 816
776 777 778 780 781 782 783 784 785 786 786 787 788 788 789 789 790 791 792 793 792 792 793 795 798 801 804 806 807 807 809 810 811 813 814 815 816 817 818 818 819 819 820 819 819 819 819 819 819 819 818 817 816 815 813 811 809 807 806 806 806 808 810 812 814 815 816 816 817 817 817 818 818 817
774 775 776 778 779 781 782 783 783 784 785 786 787 788 788 788 789 790 791 792 792 792 792 794 799 801 803 805 806 806 807 809 810 812 813 815 816 816 817 818 818 819 819 819 819 819 819 819 819 819 818 817 816 815 813 811 808 807 807 806 806 808 810 812 814 815 816 817 818 818 819 819 819 819
772 774 775 776 778 779 780 781 782 783 785 786 787 787 787 788 788 789 790 790 791 792 791 793 797 800 802 804 805 805 806 808 809 810 812 813 815 816 816 817 818 819 819 818 819 819 819 819 819 819 818 817 816 815 814 811 809 808 807 807 807 809 811 813 815 816 817 817 818 819 819 819 820 820
771 772 773 775 776 777 778 780 781 782 784 786 787 787 786 787 787 787 788 789 789 790 790 791 794 798 800 802 803 803 805 806 807 808 810 811 813 815 816 816 817 818 818 818 818 818 819 819 819 819 818 818 816 815 814 812 810 809 808 808 809 811 812 814 815 816 817 818 818 819 819 820 820 821
770 771 772 773 775 776 777 778 779 780 782 784 785 785 785 786 787 787 786 787 787 788 789 789 791 796 800 800 800 801 802 803 805 807 808 809 810 813 815 815 816 817 817 817 817 818 819 819 819 819 819 818 817 816 814 812 810 809 809 810 811 812 813 815 816 816 817 818 819 819 820 820 821 821
769 770 771 772 773 774 775 776 777 778 780 781 782 783 784 785 787 787 785 785 785 786 786 786 788 792 795 795 796 798 799 801 803 805 807 807 809 811 813 814 816 816 816 817 817 817 818 818 819 819 819 818 817 816 814 813 811 810 810 811 812 814 815 816 816 817 817 818 819 819 820 821 821 821
768 769 771 771 772 773 773 774 775 776 778 779 780 781 782 783 785 785 783 783 784 784 783 783 784 786 788 790 793 795 797 800 802 803 805 806 808 810 810 811 813 815 815 816 816 817 818 818 818 819 819 818 816 816 814 813 812 811 811 812 813 815 816 817 817 817 818 818 819 820 820 821 821 821
767 768 769 770 771 771 771 772 773 774 775 777 778 779 780 781 782 782 782 783 784 783 781 781 781 783 784 787 790 793 795 797 799 801 804 805 806 808 808 808 809 812 814 815 815 815 816 817 817 818 818 817 816 815 814 813 813 812 812 813 814 816 817 817 818 818 818 819 819 820 820 821 821 822
765 766 768 769 769 769 769 770 771 772 773 774 775 777 777 778 779 780 780 782 783 783 782 781 781 782 783 784 787 790 793 795 797 799 801 803 805 806 807 806 807 810 812 813 813 814 815 816 816 817 818 817 816 815 814 814 813 813 813 814 815 816 817 818 819 819 819 819 820 820 820 821 821 822
762 764 765 766 767 768 768 769 770 770 771 772 773 774 775 776 777 778 779 780 781 782 782 782 781 781 782 783 785 788 791 793 795 797 799 801 803 804 805 806 807 809 810 812 812 811 813 815 814 815 817 817 816 816 814 814 814 813 814 815 816 817 818 818 819 819 820 820 820 820 820 821 821 822
759 760 762 763 764 765 766 767 768 769 770 771 771 772 773 774 775 776 776 778 779 780 782 782 782 782 783 783 784 787 790 793 795 796 798 800 801 803 804 805 807 808 809 811 811 809 810 813 813 814 817 817 816 816 815 814 814 814 814 815 816 817 818 818 819 820 820 821 820 821 821 821 821 822
756 757 758 760 761 762 763 764 765 766 768 769 770 770 771 772 773 774 775 776 776 778 780 781 782 783 783 783 784 787 789 791 793 795 797 799 800 801 803 803 805 806 807 809 809 807 807 810 811 813 816 817 816 816 815 815 815 814 815 815 816 817 818 818 819 819 820 820 821 821 821 821 822 822
753 754 755 756 757 759 760 761 762 764 766 767 768 768 769 770 771 772 773 774 774 775 777 779 780 781 782 783 784 786 788 790 792 794 795 796 797 799 800 799 801 803 804 806 808 807 806 808 810 812 815 816 816 816 815 815 815 815 815 816 816 817 817 818 818 819 819 820 821 821 821 821 822 822
750 750 751 753 754 755 756 757 759 760 762 764 765 766 767 768 768 769 770 771 772 773 774 776 778 779 780 782 784 785 787 788 790 791 793 794 795 796 796 796 798 800 801 803 805 805 805 806 808 811 813 814 814 814 814 814 814 815 815 815 816 817 817 817 818 819 819 820 820 821 821 821 822 821
746 747 748 749 751 752 754 755 756 757 759 760 762 763 764 764 765 766 767 768 769 771 772 773 775 777 779 780 782 783 785 786 787 789 791 792 793 793 793 793 795 796 797 799 802 803 803 804 806 808 809 810 812 813 813 813 814 814 815 815 815 816 816 817 817 818 819 819 820 820 821 821 821 821
743 744 745 746 747 749 751 752 753 754 755 757 759 760 761 761 761 764 766 766 767 768 769 770 772 774 776 778 780 781 783 784 785 787 788 789 790 791 791 791 792 792 791 794 798 800 801 802 804 805 804 804 807 810 811 812 813 814 815 815 815 815 815 816 816 817 818 818 819 819 820 820 820 820
741 741 742 743 743 745 747 749 751 752 753 754 756 756 756 757 760 763 765 766 766 767 767 769 770 771 773 775 777 778 780 781 782 784 785 787 788 788 789 789 790 790 789 790 794 797 799 799 801 802 802 801 803 807 809 811 812 813 814 815 815 814 814 815 816 816 816 817 817 818 818 819 819 819
740 740 740 741 742 743 745 747 748 749 751 752 753 753 753 755 758 761 764 765 765 765 766 767 768 768 770 771 773 775 777 778 779 781 782 784 785 786 787 787 788 789 788 788 791 795 797 797 798 799 800 800 800 803 807 809 810 811 812 813 814 814 813 814 815 815 815 815 816 816 816 817 818 818
740 740 739 740 742 743 744 745 746 747 749 749 750 750 752 753 756 759 762 763 765 765 766 765 765 765 766 767 769 771 773 775 776 778 780 782 783 784 785 786 787 788 788 787 789 792 794 795 796 797 798 798 797 799 802 804 806 808 809 810 812 812 812 813 814 814 814 815 814 814 815 815 816 816
738 739 739 740 741 742 743 743 744 745 746 747 747 748 750 752 754 757 759 760 762 764 764 763 761 761 761 763 764 766 769 771 773 776 778 779 781 782 783 784 785 787 787 786 788 790 792 793 794 795 796 796 795 795 796 798 800 804 806 808 809 810 810 811 811 812 812 813 813 813 814 814 814 814
736 737 737 738 739 740 741 742 742 742 743 744 745 746 748 750 752 754 755 757 758 760 760 760 759 758 758 759 761 763 766 768 770 773 775 777 779 780 781 783 784 785 785 785 786 788 790 791 792 793 794 794 793 792 792 794 796 799 802 805 806 807 807 808 809 809 810 810 811 811 812 813 813 813
734 734 735 735 736 738 739 739 740 740 741 742 743 744 745 746 748 749 751 754 755 756 757 757 757 756 756 757 758 760 763 765 766 768 771 774 775 777 779 780 781 782 783 784 785 786 787 788 789 790 791 792 792 791 791 792 793 795 798 801 802 803 804 805 806 806 807 807 808 809 810 811 811 811
733 734 734 734 734 735 736 737 738 738 739 740 740 740 741 742 743 745 747 749 751 752 752 753 753 754 754 754 755 757 758 760 762 764 766 769 771 774 776 777 778 779 780 781 783 784 785 786 787 788 789 789 790 790 790 790 790 791 794 796 798 799 800 801 802 803 804 804 805 806 806 808 809 809
732 733 733 733 733 733 733 734 735 736 737 737 737 737 737 738 739 741 743 746 747 748 749 749 750 751 751 751 752 753 754 756 758 761 763 765 767 770 772 773 774 776 777 779 780 781 782 783 784 785 786 787 788 788 789 789 789 789 790 792 794 796 797 798 799 800 801 802 802 803 803 804 805 805
731 731 731 731 731 731 731 731 732 733 734 734 734 734 735 735 736 737 739 741 743 744 745 746 747 747 747 747 748 750 751 752 754 757 759 761 764 766 768 768 769 771 772 774 777 778 779 781 782 783 784 785 786 786 787 787 787 787 787 788 790 792 794 795 796 797 798 799 799 800 800 800 801 801
729 729 729 729 729 729 729 729 729 729 730 730 731 731 732 732 733 733 735 736 738 739 741 742 743 743 744 744 745 746 747 748 749 752 755 757 759 762 763 764 765 766 767 769 771 774 776 777 779 781 782 783 784 784 784 784 784 784 785 785 786 788 790 791 793 793 794 796 796 797 797 797 797 798
728 727 727 726 726 726 726 726 726 726 727 727 727 728 728 729 729 730 731 731 733 735 736 737 739 739 740 740 741 741 743 744 745 747 750 753 755 757 758 759 760 761 762 763 766 768 771 773 775 777 779 780 781 780 780 781 781 781 782 782 783 784 786 787 789 791 792 793 794 793 793 793 792 793
725 724 723 722 722 722 722 722 723 723 723 724 724 724 725 725 725 725 726 727 728 730 731 733 734 735 736 737 737 738 739 740 741 743 746 748 750 751 753 755 755 757 758 759 761 763 766 768 770 772 773 774 775 775 774 775 777 778 779 779 780 781 783 784 786 788 789 790 790 790 789 789 789 789
722 720 719 719 718 718 718 718 719 719 719 720 720 720 721 721 720 721 721 723 725 726 727 729 730 730 731 733 734 735 736 737 737 738 741 743 745 747 749 750 751 753 754 755 756 759 761 763 765 766 766 767 769 769 768 769 771 774 775 776 777 778 780 782 783 785 786 786 786 786 786 786 786 786
717 716 715 714 714 714 714 714 715 715 716 716 716 716 716 717 717 717 718 720 720 722 723 724 725 725 726 727 729 730 732 733 733 734 736 739 740 741 743 745 746 748 749 750 752 754 756 758 759 760 760 761 762 763 763 765 768 769 771 773 774 775 777 779 780 781 782 783 783 783 783 783 783 783
712 711 711 710 710 710 709 710 710 711 711 711 711 711 712 712 713 714 715 715 715 716 718 719 720 720 721 722 723 725 727 728 729 730 731 733 734 736 738 739 741 743 745 746 748 750 752 753 754 755 756 756 757 758 759 762 764 765 767 769 771 773 774 776 777 778 778 779 780 781 781 781 781 782
706 706 706 706 706 705 705 705 705 706 706 706 706 707 707 708 709 710 710 711 711 711 712 714 715 716 716 716 718 720 721 722 724 725 727 728 729 731 733 735 737 739 741 742 743 745 747 749 750 751 752 753 755 757 758 760 762 764 765 767 768 770 772 773 774 775 775 776 777 778 779 779 779 780
702 701 701 701 701 701 701 701 701 700 701 701 702 702 703 704 705 706 706 707 708 708 708 709 710 711 712 712 713 715 716 717 719 721 723 725 726 727 729 731 733 735 736 738 739 741 743 745 746 748 750 752 754 755 757 758 760 762 763 765 766 768 770 771 771 772 773 774 775 776 776 777 778 778
698 697 696 696 696 696 696 696 696 696 696 696 697 697 698 699 700 701 702 704 704 705 705 704 705 706 707 707 708 709 710 712 714 717 719 721 723 725 726 728 729 730 731 733 735 737 739 741 743 746 748 750 752 753 754 756 757 759 761 763 764 766 767 768 769 770 771 772 773 773 774 775 776 775
694 693 692 692 692 692 691 691 691 691 691 691 691 692 693 693 694 696 697 699 700 700 700 700 700 701 701 702 703 704 706 707 709 712 715 717 719 720 721 722 724 726 727 729 732 735 736 738 741 743 745 747 749 751 753 754 755 757 759 761 762 764 765 766 767 768 769 770 771 771 772 773 773 772
690 690 689 688 687 687 686 687 687 686 686 686 686 687 687 688 689 690 692 694 695 695 695 695 695 696 696 697 698 700 701 703 705 708 711 713 714 715 716 717 719 722 724 726 728 731 733 735 738 741 742 743 745 748 751 752 753 754 757 759 760 762 764 765 766 766 767 767 768 769 770 771 771 771
687 686 685 684 683 682 682 682 682 682 681 681 681 682 683 683 683 684 686 688 689 689 690 690 690 691 692 693 694 696 698 700 703 705 706 708 710 711 711 712 715 718 721 722 724 727 730 733 735 737 739 741 743 746 748 750 751 752 754 757 759 761 762 764 764 765 765 765 765 766 767 768 768 769